Weather History for KBVY - January, 2013

Change the Weather History Date:

Monday, January 21, 2013

  Actual Average Record
Temperature  
Mean Temperature 24 °F -  
Max Temperature 28 °F 28 °F 32 °F (2015)
Min Temperature 21 °F 13 °F 19 °F (2015)
Degree Days  
Heating Degree Days 40    
Moisture  
Dew Point 9 °F    
Average Humidity 53    
Maximum Humidity 86    
Minimum Humidity 33    
Precipitation  
Precipitation 0.01 in - - ()
Sea Level Pressure  
Sea Level Pressure 29.96 in    
Wind  
Wind Speed 9 mph (WNW)    
Max Wind Speed 16 mph    
Max Gust Speed 30 mph    
Visibility 8 miles    
Events Snow    
Averages and records for this station are not official NWS values.
T = Trace of Precipitation, MM = Missing Value Source: NWS Daily Summary

Daily Weather History Graph

Daily Weather History Graph

Search for Another Location

Airport or City:

Trip Planner

Search our weather history database for the weather conditions in past years. The results will help you decide how hot, cold, wet, or windy it might be!

Date:

Astronomy

Jan. 21, 2013 Rise Set
Actual Time 7:07 AM EST 4:43 PM EST
Civil Twilight 6:36 AM EST 5:14 PM EST
Nautical Twilight 6:02 AM EST 5:48 PM EST
Astronomical Twilight 5:28 AM EST 6:22 PM EST
Moon 12:20 PM EST (1/21) 2:32 AM EST (1/21)
Length of Visible Light 10h 37m
Length of Day
9h 36m
Waxing Gibbous, 75% of the Moon is Illuminated
Jan 21
Waxing Gibbous
Jan 26
Full
Feb 3
Last Quarter
Feb 10
New
Feb 17
First Quarter

Hourly Weather History & Observations

Time (EST) Temp. Windchill Dew Point Humidity Pressure Visibility Wind Dir Wind Speed Gust Speed Precip Events Conditions
12:53 AM 28.0 °F 16.5 °F 6.1 °F 39% 29.91 in 10.0 mi West 15.0 mph 29.9 mph N/A   Clear
1:53 AM 27.0 °F 16.1 °F 3.9 °F 37% 29.94 in 10.0 mi WNW 12.7 mph 23.0 mph N/A   Clear
2:53 AM 26.1 °F 13.6 °F 1.9 °F 35% 29.97 in 10.0 mi WNW 16.1 mph 26.5 mph N/A   Clear
3:53 AM 24.1 °F 15.2 °F 1.9 °F 38% 29.99 in 10.0 mi West 8.1 mph - N/A   Clear
4:53 AM 23.0 °F 10.1 °F -0.9 °F 35% 30.00 in 10.0 mi WNW 15.0 mph 20.7 mph N/A   Clear
5:53 AM 21.9 °F 13.4 °F -0.9 °F 37% 30.02 in 10.0 mi WNW 6.9 mph - N/A   Clear
6:53 AM 21.0 °F 13.4 °F 1.0 °F 42% 30.04 in 10.0 mi West 5.8 mph - N/A   Clear
7:53 AM 21.9 °F 15.7 °F 1.9 °F 42% 30.06 in 10.0 mi Variable 4.6 mph - N/A   Clear
8:53 AM 25.0 °F 14.8 °F 1.9 °F 37% 30.06 in 10.0 mi West 10.4 mph 17.3 mph N/A   Overcast
9:53 AM 27.0 °F 16.7 °F 1.9 °F 34% 30.08 in 10.0 mi WSW 11.5 mph - N/A   Clear
10:53 AM 26.1 °F 16.8 °F 1.0 °F 34% 30.06 in 10.0 mi West 9.2 mph - N/A   Overcast
11:53 AM 28.0 °F 19.3 °F 1.9 °F 33% 30.02 in 10.0 mi West 9.2 mph - N/A   Overcast
12:53 PM 28.9 °F 20.4 °F 3.9 °F 35% 29.98 in 10.0 mi SW 9.2 mph - N/A   Overcast
1:53 PM 27.0 °F 21.6 °F 3.0 °F 36% 29.97 in 10.0 mi Variable 4.6 mph - N/A   Overcast
2:53 PM 28.0 °F 18.1 °F 3.9 °F 36% 29.96 in 10.0 mi WSW 11.5 mph - N/A   Overcast
3:53 PM 28.0 °F 18.6 °F 3.9 °F 36% 29.94 in 10.0 mi SSW 10.4 mph - N/A   Overcast
4:53 PM 27.0 °F 19.5 °F 7.0 °F 43% 29.94 in 10.0 mi SW 6.9 mph - N/A   Overcast
5:53 PM 27.0 °F 19.5 °F 10.0 °F 49% 29.93 in 10.0 mi West 6.9 mph - N/A   Overcast
6:53 PM 24.1 °F 19.7 °F 17.1 °F 75% 29.93 in 3.0 mi Variable 3.5 mph - 0.00 in Snow Light Snow
7:04 PM 24.8 °F 19.1 °F 17.6 °F 74% 29.94 in 2.5 mi West 4.6 mph - 0.00 in Snow Light Snow
7:36 PM 24.8 °F 20.5 °F 19.4 °F 80% 29.93 in 1.8 mi NNW 3.5 mph - 0.00 in Snow Light Snow
7:53 PM 24.1 °F - 19.0 °F 81% 29.92 in 2.0 mi Calm Calm - 0.00 in Snow Light Snow
8:10 PM 24.8 °F - 19.4 °F 80% 29.91 in 2.5 mi Calm Calm - 0.00 in Snow Light Snow
8:39 PM 23.0 °F 18.4 °F 19.4 °F 86% 29.91 in 4.0 mi North 3.5 mph - 0.01 in Snow Light Snow
8:53 PM 23.0 °F 18.4 °F 19.0 °F 85% 29.91 in 5.0 mi NNE 3.5 mph - 0.01 in Snow Light Snow
9:53 PM 23.0 °F 18.4 °F 18.0 °F 81% 29.87 in 10.0 mi NE 3.5 mph - 0.00 in   Overcast
10:53 PM 23.0 °F 18.4 °F 18.0 °F 81% 29.84 in 10.0 mi NNE 3.5 mph - N/A   Overcast
11:53 PM 23.0 °F - 18.0 °F 81% 29.78 in 10.0 mi Calm Calm - N/A   Overcast